Regional Weather Roundup
Issued by NWS

Home | Current Version | Previous Version | Graphics & Text | Print | Product List | Glossary On
Versions: 1 2 3 4 5 6 7 8 9 10 11 12 13 14 15 16 17 18 19 20 21 22 23 24 25 26 27 28 29 30 31 32 33 34 35 36 37 38 39 40 41 42 43 44 45 46 47 48 49 50
975
ASUS43 KMKX 191159
RWRWI

WISCONSIN REGIONAL WEATHER ROUNDUP
NATIONAL WEATHER SERVICE MILWAUKEE/SULLIVAN WI
600 AM CST MON FEB 19 2018

NOTE: "FAIR" INDICATES FEW OR NO CLOUDS BELOW 12,000 FEET WITH NO
SIGNIFICANT WEATHER AND/OR OBSTRUCTIONS TO VISIBILITY.

WIZ001-002-006>008-014>016-023>028-191300-
NORTHWEST WISCONSIN

CITY           SKY/WX    TMP DP  RH WIND       PRES   REMARKS
SUPERIOR ARPT  CLOUDY    16   9  74 NE9       30.00R WCI   4
6HR MIN TEMP:  16; 6HR MAX TEMP:  20;

ASHLAND        LGT SNOW  19  16  88 NE16      29.99R VSB 3/4 WCI   4
6HR MIN TEMP:  18; 6HR MAX TEMP:  21; 6HR PCP: TRACE;

HAYWARD        FLURRIES  20  15  81 NE16      29.88F WCI   6
6HR MIN TEMP:  20; 6HR MAX TEMP:  26; 6HR PCP: TRACE;

SIREN          CLOUDY    20  16  84 NE13      29.90S WCI   7
CUMBERLAND     CLOUDY    21  18  86 NE15      29.83F WCI   8
RICE LAKE      CLOUDY    23  20  89 N15G22    29.85F WCI  10
CHETEK         CLOUDY    26  22  83 NE8       29.84R WCI  18
LADYSMITH      CLOUDY    26  21  83 N16       29.86R WCI  13
EAU CLAIRE     NOT AVBL
MENOMONIE      CLOUDY    29  25  82 N8        29.81R WCI  21
6HR MIN TEMP:  28; 6HR MAX TEMP:  33;

NEW RICHMOND   CLOUDY    24  19  81 NE17      29.82F WCI  11
OSCEOLA        CLOUDY    24  19  83 N8        29.88S WCI  15
$$

WIZ003>005-009-010-017-018-191300-
NORTH CENTRAL WISCONSIN

CITY           SKY/WX    TMP DP  RH WIND       PRES   REMARKS
MANITOWISH WTR CLOUDY    17  17 100 N6        29.88R WCI   9
ARBOR VITAE    CLOUDY    22  19  91 N10G18    29.85R WCI  11
WOODRUFF       CLOUDY    22  19  91 N10G18    29.85R WCI  11
RHINELANDER    CLOUDY    28  24  85 N9        29.83R WCI  19
6HR MIN TEMP:  25; 6HR MAX TEMP:  32;

EAGLE RIVER    CLOUDY    23  22  98 N10       29.83S WCI  12
LAND O LAKES   CLOUDY    20  19  95 N12       29.87R FOG     WCI   8
PHILLIPS       CLOUDY    23  20  91 N8        29.86R WCI  14
TOMAHAWK       CLOUDY    28  24  85 N3        29.82R
MEDFORD        CLOUDY    25  23  93 NE7       29.77F WCI  17
MERRILL        MOCLDY    24  24  99 CALM      29.82R FOG
$$

WIZ029-030-035-036-043>047-191300-
CENTRAL WISCONSIN

CITY           SKY/WX    TMP DP  RH WIND       PRES   REMARKS
WAUSAU         FAIR      20  20 100 NE3       29.77F FOG
6HR MIN TEMP:  20; 6HR MAX TEMP:  30;

MOSINEE        PTCLDY    25  25 100 NE8       29.78F FOG     WCI  16
MARSHFIELD     FAIR      25  25 100 NE7       29.75F FOG     WCI  17
6HR MIN TEMP:  23; 6HR MAX TEMP:  30;

STEVENS POINT  FAIR      20  20 100 CALM      29.81S FOG
WAUPACA        FAIR      27  25  92 CALM      29.82R FOG
WAUTOMA        CLOUDY    27  26  96 CALM      29.81R
6HR MIN TEMP:  24; 6HR MAX TEMP:  35;

WISC RAPIDS    FAIR      27  23  85 E5        29.79F WCI  22
6HR MIN TEMP:  23; 6HR MAX TEMP:  32;

CAMP DOUGLAS   CLOUDY    34  30  84 E6        29.77R WCI  29
6HR MIN TEMP:  34; 6HR MAX TEMP:  38;

$$

WIZ011>013-019>022-031-037>040-048>050-191300-
NORTHEAST WISCONSIN

CITY           SKY/WX    TMP DP  RH WIND       PRES   REMARKS
ANTIGO         FAIR      15  14  94 NE6       29.81R FOG     WCI   6
SHAWANO        FAIR      25  23  92 CALM      29.83R FOG
OCONTO         CLOUDY    28  27  93 CALM      29.84R
STURGEON BAY   CLOUDY    34  32  92 MISG      29.86R
6HR MIN TEMP:  34; 6HR MAX TEMP:  35;

GREEN BAY      CLOUDY    32  28  85 CALM      29.85R
6HR MIN TEMP:  32; 6HR MAX TEMP:  35;

MANITOWOC      CLOUDY    34  31  88 CALM      29.85R FOG
6HR MIN TEMP:  32; 6HR MAX TEMP:  34;

APPLETON       CLOUDY    30  27  86 CALM      29.81R
CLINTONVILLE   FAIR      24  22  93 CALM      29.82S FOG
OSHKOSH        CLOUDY    36  31  82 S6        29.82R WCI  31
6HR MIN TEMP:  30; 6HR MAX TEMP:  37;

$$

WIZ032>034-041-042-053>061-191300-
SOUTHWEST WISCONSIN

CITY           SKY/WX    TMP DP  RH WIND       PRES   REMARKS
LA CROSSE      CLOUDY    33  29  85 CALM      29.77R
6HR MIN TEMP:  31; 6HR MAX TEMP:  40;

SPARTA         CLOUDY    28  26  94 CALM      29.78R
VIROQUA        CLOUDY    35  32  87 SE7       29.74R WCI  30
BOSCOBEL       FAIR      33  28  81 CALM      29.79R
6HR MIN TEMP:  33; 6HR MAX TEMP:  39;

PRAIRIE DU CHI FAIR      37  29  72 E6        29.76R WCI  33
PLATTEVILLE    FAIR      34  33  94 SE7       29.78S WCI  28
$$

WIZ056-057-062-063-064-067-068-191300-
SOUTH CENTRAL WISCONSIN

CITY           SKY/WX    TMP DP  RH WIND       PRES   REMARKS
REEDSBURG      CLOUDY    38  31  78 CALM      29.77S
6HR MIN TEMP:  35; 6HR MAX TEMP:  38;

BARABOO/DELLS  CLOUDY    37  31  79 S7        29.77S WCI  31
LONE ROCK      NOT AVBL
MINERAL POINT  FAIR      34  34 100 SE7       29.77R WCI  28
MADISON        MOCLDY    35  32  88 S5        29.80F WCI  31
6HR MIN TEMP:  34; 6HR MAX TEMP:  37;

MIDDLETON      FAIR      37  33  85 S5        29.80S WCI  33
WATERTOWN      CLOUDY    35  34  94 CALM      29.81S
MONROE         FAIR      34  32  93 S9        29.79R WCI  26
JANESVILLE     FAIR      36  36 100 SE5       29.81S WCI  32
$$

WIZ051-052-058>065-066-070>072-191300-
SOUTHEAST WISCONSIN

CITY           SKY/WX    TMP DP  RH WIND       PRES   REMARKS
MILWAUKEE      MOCLDY    40  34  79 SW6       29.83R
6HR MIN TEMP:  33; 6HR MAX TEMP:  40;

WAUKESHA       CLOUDY    36  32  87 SW5       29.83S WCI  32
MILWAUKEE/TIMM CLOUDY    37  32  81 SW6       29.83S WCI  33
RACINE         MOCLDY    37  34  89 S3        29.85S
6HR MIN TEMP:  35; 6HR MAX TEMP:  40;

BURLINGTON     FAIR      36  33  88 CALM      29.82F
KENOSHA        FAIR      38  34  85 SW7       29.83F WCI  33
6HR MIN TEMP:  38; 6HR MAX TEMP:  41; 6HR PCP: TRACE;

FOND DU LAC    CLOUDY    39  31  72 S8        29.82R WCI  33
6HR MIN TEMP:  35; 6HR MAX TEMP:  39;

SHEBOYGAN      CLOUDY    33  32  96 CALM      29.83R
6HR MIN TEMP:  31; 6HR MAX TEMP:  34;

WEST BEND      CLOUDY    37  34  87 SW5       29.83R WCI  34
JUNEAU         CLOUDY    35  32  88 SE5       29.83R WCI  31
$$

LSZ147-162-191300-
LAKE SUPERIOR

STATION/POSITION TIME  TEMP    WIND        PRES    WAVE
                       AIR SEA DIR/SP/G            HT/PER
                 (UTC) (F)     (DEG/KT/KT) (MB)    (FT/S)
DEVILS ISLAND    1100   20      30/ 18/ 21 1017.5R
SAXON HARBOR     1140   21      70/ 13/ 18 1014.6S
$$

LMZ867-665-643>646-191300-
LAKE MICHIGAN

STATION/POSITION TIME  TEMP    WIND        PRES    WAVE
                       AIR SEA DIR/SP/G            HT/PER
                 (UTC) (F)     (DEG/KT/KT) (MB)    (FT/S)
NORTHPORT PIER   1140   34                 1011.5R
KEWAUNEE LAKESHO 1130   34     180/  3/  4 1009.9R
SHEBOYGAN LAKESH 1100   35     180/ 11/ 11 1010.5R
PORT WASHINGTON  1130   34     170/  4/  5 1011.5R
MILWAUKEE LAKESH 1130   39     220/  6/  6   N/A
KENOSHA   LAKESH 1100   41     210/  4/  7 1010.8
$$

TC  - TEMPERATURE IN CELSIUS
VSB - VISIBILITY IN STATUTE MILES
WCI - WIND CHILL INDEX
HX  - HEAT INDEX





USA.gov is the U.S. government's official web portal to all federal, state and local government web resources and services.